The Dalles, WA

10:32 PM PDT on August 25, 2019 (GMT -0700)
Columbia Gorge Regional-The Dalles

Weather History for KDLS - June, 2019

Change the Weather History Date:

Sunday, June 2, 2019

  Actual Average Record
Temperature  
Mean Temperature 72 °F -  
Max Temperature 87 °F 79 °F 102 °F (1970)
Min Temperature 57 °F 51 °F 39 °F (1966)
Cooling Degree Days 6    
Growing Degree Days 22 (Base 50)    
Moisture  
Dew Point 49 °F    
Average Humidity 47    
Maximum Humidity 72    
Minimum Humidity 21    
Precipitation  
Precipitation 0.00 in - - ()
Sea Level Pressure  
Sea Level Pressure 29.80 in    
Wind  
Wind Speed 13 mph (NW)    
Max Wind Speed 25 mph    
Max Gust Speed 33 mph    
Visibility 10 miles    
Events      
Averages and records for this station are not official NWS values.
T = Trace of Precipitation, MM = Missing Value Source: NWS Daily Summary

Daily Weather History Graph

Daily Weather History Graph

Search for Another Location

Airport or City:

Astronomy

Jun. 02, 2019 Rise Set
Actual Time 5:18 AM PDT 8:47 PM PDT
Civil Twilight 4:41 AM PDT 9:24 PM PDT
Nautical Twilight 3:52 AM PDT 10:13 PM PDT
Astronomical Twilight 2:49 AM PDT 11:17 PM PDT
Moon 5:07 AM PDT (6/2) 8:08 PM PDT (6/2)
Length of Visible Light 16h 43m
Length of Day
15h 28m
Waning Crescent, 1% of the Moon is Illuminated
Jun 2
Waning Crescent
Jun 3
New
Jun 9
First Quarter
Jun 17
Full
Jun 25
Last Quarter

Hourly Weather History & Observations

Time (PDT) Temp. Dew Point Humidity Pressure Visibility Wind Dir Wind Speed Gust Speed Precip Events Conditions
12:53 AM 66.9 °F 54.0 °F 63% 29.81 in 10.0 mi NNW 18.4 mph - N/A   Clear
1:53 AM 64.9 °F 53.1 °F 65% 29.81 in 10.0 mi West 6.9 mph - N/A   Clear
2:53 AM 63.0 °F 52.0 °F 67% 29.82 in 10.0 mi West 6.9 mph - N/A   Clear
3:53 AM 61.0 °F 51.1 °F 70% 29.82 in 10.0 mi NW 12.7 mph 19.6 mph N/A   Clear
4:53 AM 57.0 °F 48.0 °F 72% 29.82 in 10.0 mi Variable 3.5 mph - N/A   Clear
5:53 AM 57.0 °F 45.0 °F 64% 29.83 in 10.0 mi South 3.5 mph - N/A   Clear
6:53 AM 60.1 °F 46.9 °F 62% 29.84 in 10.0 mi Calm Calm - N/A   Clear
7:53 AM 64.9 °F 53.1 °F 65% 29.83 in 10.0 mi Calm Calm - N/A   Clear
8:53 AM 68.0 °F 54.0 °F 61% 29.82 in 10.0 mi WNW 5.8 mph - N/A   Clear
9:53 AM 72.0 °F 54.0 °F 53% 29.82 in 10.0 mi NW 13.8 mph 19.6 mph N/A   Clear
10:53 AM 75.0 °F 55.0 °F 50% 29.80 in 10.0 mi NNW 13.8 mph 20.7 mph N/A   Clear
11:53 AM 79.0 °F 54.0 °F 42% 29.78 in 10.0 mi NNW 18.4 mph 28.8 mph N/A   Clear
12:53 PM 80.1 °F 52.0 °F 38% 29.77 in 10.0 mi NW 20.7 mph 29.9 mph N/A   Clear
1:53 PM 82.9 °F 46.9 °F 28% 29.77 in 10.0 mi NNW 23.0 mph 32.2 mph N/A   Clear
2:53 PM 84.0 °F 46.0 °F 26% 29.75 in 10.0 mi NNW 20.7 mph 27.6 mph N/A   Clear
3:53 PM 86.0 °F 42.1 °F 21% 29.75 in 10.0 mi WNW 24.2 mph 33.4 mph N/A   Clear
4:53 PM 84.0 °F 46.9 °F 27% 29.74 in 10.0 mi WNW 25.3 mph 32.2 mph N/A   Clear
5:53 PM 84.0 °F 45.0 °F 25% 29.74 in 10.0 mi WNW 17.3 mph - N/A   Clear
6:53 PM 80.1 °F 46.9 °F 31% 29.75 in 10.0 mi WNW 16.1 mph 25.3 mph N/A   Clear
7:53 PM 79.0 °F 46.9 °F 32% 29.76 in 10.0 mi WNW 15.0 mph 24.2 mph N/A   Clear
8:53 PM 73.9 °F 48.0 °F 40% 29.78 in 10.0 mi WNW 16.1 mph 23.0 mph N/A   Clear
9:53 PM 71.1 °F 46.9 °F 42% 29.82 in 10.0 mi NW 11.5 mph - N/A   Clear
10:53 PM 71.1 °F 46.9 °F 42% 29.83 in 10.0 mi NW 15.0 mph - N/A   Clear
11:53 PM 69.1 °F 45.0 °F 42% 29.84 in 10.0 mi NW 19.6 mph - N/A   Clear